This demonstration page uses our WeatherBlox Daily Observations layout. Learn more.

Left ArrowRight Arrow

39.51506, -84.39828

Hourly Observations for February 7, 2017

Temp ( °F °C ) Dew Point ( °F °C ) Humidity (%) Winds ( mph kmh ) Pressure ( in mb ) Visibility ( mi km ) Precip ( " mm )
12:18 am 00:18 Cloudy with Rain 54 12.2 53 11.7 97 97 SSW 12 19 29.77 1008 4 6 0.08 2.03
12:28 am 00:28 Cloudy with Rain 55 12.8 53 11.7 93 93 SSW 10 17 29.77 1008 4 6 0.11 2.79
12:53 am 00:53 Cloudy with Light Rain 55 12.8 54 12.2 96 96 SSW 9 15 29.77 1008 7 11 0.13 3.30
1:26 am 01:26 Cloudy with Heavy Rain 55 12.8 54 12.2 96 96 S 13 20 29.74 1007 3 4 0.16 4.06
1:29 am 01:29 Cloudy with Rain 55 12.8 54 12.2 96 96 S 10 17 29.74 1007 3 5 0.17 4.32
1:36 am 01:36 Cloudy with Heavy Rain 55 12.8 54 12.2 96 96 S 10 17 29.74 1007 4 6 0.21 5.33
1:53 am 01:53 Cloudy with Nearby Thunderstorms 55 12.8 54 12.2 96 96 VRB 3 6 29.72 1006 6 10 0.26 6.60
2:11 am 02:11 Cloudy with Nearby Thunderstorms 55 12.8 54 12.2 96 96 Calm 29.74 1007 5 8 0.01 0.25
2:24 am 02:24 Cloudy with Nearby Thunderstorms 55 12.8 54 12.2 96 96 SSE 7 11 29.71 1006 4 6 0.01 0.25
2:28 am 02:28 Cloudy with Nearby Thunderstorms 55 12.8 54 12.2 96 96 SSE 9 15 29.71 1006 3 5 0.01 0.25
2:33 am 02:33 Cloudy with Thunderstorms 55 12.8 54 12.2 96 96 S 7 11 29.71 1006 3 4 0.02 0.51
2:42 am 02:42 Cloudy with Thunderstorms 55 12.8 54 12.2 96 96 S 9 15 29.71 1006 3 5 0.04 1.02
2:53 am 02:53 Cloudy with Thunderstorms 55 12.8 55 12.8 100 100 S 5 7 29.70 1006 3 5 0.08 2.03
3:09 am 03:09 Cloudy with Nearby Thunderstorms 55 12.8 54 12.2 96 96 S 7 11 29.68 1005 5 8 0.01 0.25
3:24 am 03:24 Cloudy with Heavy Rain 56 13.3 55 12.8 97 97 S 10 17 29.68 1005 3 4 0.08 2.03
3:39 am 03:39 Cloudy with Light Rain 56 13.3 55 12.8 97 97 S 12 19 29.68 1005 5 8 0.11 2.79
3:53 am 03:53 Cloudy with Light Rain 57 13.9 56 13.3 96 96 SSW 14 22 29.66 1004 7 11 0.12 3.05
4:30 am 04:30 Cloudy 58 14.4 56 13.3 93 93 SW 16 26 29.65 1004 10 16 0.01 0.25
4:53 am 04:53 Cloudy 59 15 56 13.3 90 90 SSW 15 24 29.65 1004 10 16 0.01 0.25
5:25 am 05:25 Cloudy 59 15 56 13.3 90 90 SSW 12 19 29.65 1004 10 16 0.00 0.03
5:53 am 05:53 Cloudy 59 15 55 12.8 87 87 SSW 13 20 29.63 1003 10 16 0.00 0.03
6:53 am 06:53 Cloudy 59 15 55 12.8 87 87 SSW 14 22 29.62 1003 10 16 0.00 0.00
7:53 am 07:53 Cloudy 59 15 55 12.8 87 87 SSW 13 20 29.62 1003 10 16 0.00 0.03
8:53 am 08:53 Cloudy 59 15 54 12.2 83 83 SSW 20 31 29.60 1003 10 16 0.00 0.00
9:53 am 09:53 Cloudy with Light Rain 58 14.4 54 12.2 87 87 SSW 17 28 29.59 1002 10 16 0.00 0.03
10:38 am 10:38 Mostly Cloudy 59 15 54 12.2 83 83 SSW 20 31 29.56 1001 10 16 0.00 0.03
10:53 am 10:53 Mostly Cloudy 59 15 54 12.2 83 83 SSW 18 30 29.54 1000 10 16 0.00 0.03
11:53 am 11:53 Cloudy 59 15 54 12.2 83 83 SSW 18 30 29.53 1000 10 16 0.00 0.03
12:53 pm 12:53 Cloudy 59 15 53 11.7 81 81 SW 14 22 29.51 999 10 16 0.00 0.00
1:53 pm 13:53 Cloudy 59 15 52 11.1 78 78 SSW 21 33 29.48 998 10 16 0.00 0.00
2:53 pm 14:53 Cloudy with Light Rain 59 15 53 11.7 81 81 SSW 18 30 29.46 998 10 16 0.00 0.03
3:53 pm 15:53 Cloudy 59 15 52 11.1 78 78 SSW 16 26 29.45 997 10 16 0.00 0.03
4:53 pm 16:53 Cloudy 59 15 52 11.1 78 78 SW 16 26 29.47 998 10 16 0.01 0.25
5:53 pm 17:53 Cloudy with Light Rain 58 14.4 53 11.7 84 84 SW 21 33 29.49 999 10 16 0.00 0.03
6:53 pm 18:53 Cloudy 58 14.4 53 11.7 84 84 SW 15 24 29.51 999 10 16 0.00 0.03
7:53 pm 19:53 Cloudy 58 14.4 53 11.7 84 84 SW 17 28 29.52 1000 10 16 0.00 0.00
8:53 pm 20:53 Mostly Cloudy 57 13.9 52 11.1 83 83 SW 12 19 29.53 1000 10 16 0.00 0.00
9:53 pm 21:53 Cloudy 56 13.3 49 9.4 77 77 W 10 17 29.57 1002 10 16 0.00 0.00
10:53 pm 22:53 Mostly Cloudy 52 11.1 44 6.7 75 75 W 13 20 29.62 1003 10 16 0.00 0.00
11:27 pm 23:27 Partly Cloudy 51 10.6 43 6.1 74 74 W 14 22 29.62 1003 10 16 0.00 0.00
11:53 pm 23:53 Clear 50 10 42 5.6 74 74 W 8 13 29.61 1003 10 16 0.00 0.00

Powered by AerisWeather